CW3699 Weather Reports


time (UTC)temp
C
wind
direction
speed
KPH
gust
KPH
rain 1hr
cm
rain 24hr
cm
rain mn
cm
humidity
%
barometer
mb
20260509124911 12 166 6.4 16.1 0.00 0.00 0.00 58 997.3
20260509124411 11 176 4.8 11.3 0.00 0.00 0.00 58 997.5
20260509123912 11 179 8.0 12.9 0.00 0.00 0.00 58 997.5
20260509123414 11 193 4.8 9.7 0.00 0.00 0.00 58 997.5
20260509122913 11 167 4.8 14.5 0.00 0.00 0.00 58 997.5
20260509122413 11 204 4.8 14.5 0.00 0.00 0.00 58 997.5
20260509121912 11 162 6.4 11.3 0.00 0.00 0.00 57 997.4
20260509121412 11 158 4.8 12.9 0.00 0.00 0.00 57 997.6
20260509120414 10 186 6.4 14.5 0.00 0.00 0.00 56 997.7
20260509115914 10 155 8.0 14.5 0.00 0.00 0.00 55 997.7
20260509115412 10 173 6.4 11.3 0.00 0.00 0.00 55 997.8
20260509114914 10 159 8.0 12.9 0.00 0.00 0.00 54 997.9
20260509113914 10 168 8.0 11.3 0.00 0.00 0.00 53 997.8
20260509113413 10 171 6.4 11.3 0.00 0.00 0.00 54 997.8
20260509112912 10 165 6.4 11.3 0.00 0.00 0.00 54 997.9
20260509112413 10 173 4.8 11.3 0.00 0.00 0.00 54 998.0
20260509111912 10 173 8.0 16.1 0.00 0.00 0.00 55 998.2
20260509110912 9 167 6.4 11.3 0.00 0.00 0.00 55 998.2
20260509110414 9 188 6.4 11.3 0.00 0.00 0.00 55 998.2
20260509105912 9 177 6.4 12.9 0.00 0.00 0.00 55 998.4
20260509105413 9 171 4.8 9.7 0.00 0.00 0.00 55 998.4
20260509104413 9 176 6.4 12.9 0.00 0.00 0.00 55 998.5
20260509103912 9 175 6.4 14.5 0.00 0.00 0.00 55 998.4
20260509103414 9 172 6.4 16.1 0.00 0.00 0.00 55 998.4
20260509102914 8 179 4.8 12.9 0.00 0.00 0.00 55 998.5
20260509102413 8 170 8.0 11.3 0.00 0.00 0.00 55 998.7
20260509101911 8 172 6.4 12.9 0.00 0.00 0.00 55 998.8
20260509101413 8 185 6.4 11.3 0.00 0.00 0.00 55 998.8
20260509100912 8 166 8.0 12.9 0.00 0.00 0.00 55 999.0
20260509100413 9 170 4.8 14.5 0.00 0.00 0.00 55 999.1
20260509095911 9 169 4.8 14.5 0.00 0.00 0.00 55 999.1
20260509095413 9 165 6.4 14.5 0.00 0.00 0.00 55 999.2
20260509094914 9 174 4.8 12.9 0.00 0.00 0.00 55 999.2
20260509094414 9 168 6.4 11.3 0.00 0.00 0.00 55 999.3
20260509093912 9 170 4.8 11.3 0.00 0.00 0.00 55 999.3
20260509093413 9 166 6.4 11.3 0.00 0.00 0.00 54 999.4
20260509092911 9 168 4.8 12.9 0.00 0.00 0.00 54 999.5
20260509092414 9 173 8.0 16.1 0.00 0.00 0.00 54 999.6
20260509091911 9 164 4.8 12.9 0.00 0.00 0.00 54 999.5
20260509091413 9 164 6.4 16.1 0.00 0.00 0.00 54 999.7
20260509090912 9 168 8.0 12.9 0.00 0.00 0.00 55 999.8
20260509090415 9 168 8.0 12.9 0.00 0.00 0.00 55 999.8
20260509085914 9 188 6.4 12.9 0.00 0.00 0.00 56 999.9
20260509085412 9 165 6.4 12.9 0.00 0.00 0.00 56 999.9
20260509084413 8 174 6.4 12.9 0.00 0.00 0.00 56 1000.1
20260509083913 8 165 4.8 11.3 0.00 0.00 0.00 57 1000.1
20260509083413 8 168 8.0 11.3 0.00 0.00 0.00 58 1000.2
20260509082913 8 168 6.4 14.5 0.00 0.00 0.00 59 1000.2
20260509081912 8 174 3.2 11.3 0.00 0.00 0.00 62 1000.4
20260509081412 7 150 4.8 11.3 0.00 0.00 0.00 63 1000.5
20260509080913 7 161 4.8 8.0 0.00 0.00 0.00 64 1000.6
20260509080412 7 154 4.8 8.0 0.00 0.00 0.00 64 1000.7
20260509075913 7 159 3.2 4.8 0.00 0.00 0.00 64 1000.7
20260509075412 7 191 4.8 8.0 0.00 0.00 0.00 63 1000.8
20260509074912 7 162 3.2 9.7 0.00 0.00 0.00 64 1000.9
20260509074413 7 154 4.8 9.7 0.00 0.00 0.00 63 1001.0
20260509073412 7 151 6.4 11.3 0.00 0.00 0.00 63 1001.1
20260509072913 7 153 4.8 9.7 0.00 0.00 0.00 63 1001.3
20260509072413 7 149 3.2 4.8 0.00 0.00 0.00 63 1001.4
20260509071911 7 152 4.8 8.0 0.00 0.00 0.00 62 1001.6
20260509071413 7 158 6.4 9.7 0.00 0.00 0.00 62 1001.6
20260509070913 7 154 4.8 8.0 0.00 0.00 0.00 61 1001.6
20260509070413 7 137 4.8 9.7 0.00 0.00 0.00 61 1001.7
20260509065413 7 160 4.8 11.3 0.00 0.00 0.00 62 1001.9
20260509064911 7 157 6.4 12.9 0.00 0.00 0.00 61 1002.0
20260509063911 7 161 6.4 11.3 0.00 0.00 0.00 61 1002.2
20260509063415 7 153 4.8 12.9 0.00 0.00 0.00 61 1002.3
20260509062913 7 147 6.4 11.3 0.00 0.00 0.00 61 1002.4
20260509062413 7 151 4.8 12.9 0.00 0.00 0.00 61 1002.4
20260509061413 7 161 9.7 16.1 0.00 0.00 0.00 61 1002.6
20260509060912 7 149 4.8 11.3 0.00 0.00 0.00 62 1002.8
20260509060413 7 149 4.8 9.7 0.00 0.00 0.00 62 1002.8
20260509054912 7 148 4.8 9.7 0.00 0.00 0.00 61 1003.2
20260509054413 7 147 4.8 8.0 0.00 0.00 0.00 62 1003.3
20260509053912 7 142 8.0 11.3 0.00 0.00 0.00 62 1003.4
20260509053413 7 150 4.8 11.3 0.00 0.00 0.00 63 1003.5
20260509052913 7 133 4.8 9.7 0.00 0.00 0.00 62 1003.6
20260509052413 7 119 4.8 8.0 0.00 0.00 0.00 64 1003.7
20260509051911 7 104 4.8 11.3 0.00 0.00 0.00 63 1003.9
20260509051411 7 131 6.4 12.9 0.00 0.00 0.00 62 1003.9
20260509050913 8 122 3.2 8.0 0.00 0.00 0.00 63 1004.0
20260509050414 8 122 3.2 4.8 0.00 0.00 0.00 61 1004.1
20260509045911 8 103 3.2 9.7 0.00 0.00 0.00 59 1004.3
20260509045413 8 130 3.2 4.8 0.00 0.00 0.00 59 1004.3
20260509044913 8 76 3.2 4.8 0.00 0.00 0.00 58 1004.3
20260509044411 8 97 1.6 4.8 0.00 0.00 0.00 58 1004.4
20260509043913 8 105 4.8 11.3 0.00 0.00 0.00 58 1004.4
20260509043411 8 117 3.2 4.8 0.00 0.00 0.00 58 1004.5
20260509042911 8 138 3.2 8.0 0.00 0.00 0.00 57 1004.5
20260509042413 8 142 3.2 9.7 0.00 0.00 0.00 58 1004.5
20260509041911 8 149 3.2 11.3 0.00 0.00 0.00 58 1004.6
20260509041413 8 153 3.2 11.3 0.00 0.00 0.00 58 1004.5
20260509040912 8 132 3.2 12.9 0.00 0.00 0.00 58 1004.7
20260509040412 8 141 3.2 9.7 0.00 0.00 0.00 58 1004.8
20260509035913 8 182 3.2 8.0 0.00 0.00 0.00 57 1004.8
20260509034913 8 144 4.8 9.7 0.00 0.00 0.00 57 1004.9
20260509034414 8 156 4.8 12.9 0.00 0.00 0.00 57 1004.9
20260509033912 8 157 4.8 11.3 0.00 0.00 0.00 57 1004.9
20260509032913 8 137 4.8 11.3 0.00 0.00 0.00 57 1004.9
20260509031912 8 126 4.8 14.5 0.00 0.00 0.00 57 1005.1
20260509031413 8 160 8.0 14.5 0.00 0.00 0.00 57 1005.1
20260509030913 8 166 8.0 16.1 0.00 0.00 0.00 56 1005.1
20260509030412 8 154 6.4 14.5 0.00 0.00 0.00 56 1005.1
20260509025911 8 158 6.4 19.3 0.00 0.00 0.00 57 1005.2
20260509024911 8 157 6.4 11.3 0.00 0.00 0.00 57 1005.3
20260509024411 8 135 6.4 14.5 0.00 0.00 0.00 56 1005.4
20260509023913 8 151 6.4 11.3 0.00 0.00 0.00 56 1005.4
20260509023412 8 149 6.4 14.5 0.00 0.00 0.00 57 1005.4
20260509022913 7 149 8.0 12.9 0.00 0.00 0.00 57 1005.4
20260509022411 7 156 8.0 14.5 0.00 0.00 0.00 57 1005.5
20260509021913 7 137 4.8 11.3 0.00 0.00 0.00 58 1005.5
20260509021411 7 152 8.0 20.9 0.00 0.00 0.00 58 1005.5
20260509020911 7 145 8.0 16.1 0.00 0.00 0.00 58 1005.5
20260509015913 7 158 4.8 14.5 0.00 0.00 0.00 58 1005.6
20260509015411 7 178 6.4 11.3 0.00 0.00 0.00 59 1005.6
20260509014413 7 152 4.8 11.3 0.00 0.00 0.00 60 1005.6
20260509013911 7 156 4.8 9.7 0.00 0.00 0.00 60 1005.5
20260509013413 7 149 4.8 8.0 0.00 0.00 0.00 61 1005.6
20260509012913 7 133 4.8 8.0 0.00 0.00 0.00 61 1005.5
20260509010913 7 144 3.2 9.7 0.00 0.00 0.00 66 1005.4
20260509010412 7 154 3.2 4.8 0.00 0.00 0.00 66 1005.4
20260509005913 7 83 3.2 4.8 0.00 0.00 0.00 67 1005.4
20260509005413 7 151 1.6 4.8 0.00 0.00 0.00 66 1005.4
20260509004913 7 111 3.2 8.0 0.00 0.00 0.00 67 1005.4
20260509004412 8 118 3.2 4.8 0.00 0.00 0.00 66 1005.4
20260509003912 8 138 3.2 4.8 0.00 0.00 0.00 65 1005.5
20260509003411 8 140 3.2 4.8 0.00 0.00 0.00 66 1005.5
20260509002913 8 124 1.6 4.8 0.00 0.00 0.00 66 1005.5
20260509002413 8 96 3.2 9.7 0.00 0.00 0.00 66 1005.5
20260509001411 10 73 4.8 9.7 0.00 0.00 0.00 65 1005.5
20260509000913 10 52 3.2 4.8 0.00 0.00 0.00 58 1005.4
20260509000413 10 77 3.2 4.8 0.00 0.00 0.00 56 1005.5
20260508235913 10 68 3.2 4.8 0.00 0.00 0.00 55 1005.5
20260508235412 10 98 3.2 4.8 0.00 0.00 0.00 56 1005.4
20260508234413 10 67 1.6 4.8 0.00 0.00 0.00 58 1005.6
20260508233912 10 51 3.2 4.8 0.00 0.00 0.00 58 1005.5
20260508233412 10 72 3.2 4.8 0.00 0.00 0.00 56 1005.5
20260508232911 10 95 3.2 4.8 0.00 0.00 0.00 57 1005.6
20260508232412 10 84 1.6 4.8 0.00 0.00 0.00 55 1005.6
20260508231911 10 83 3.2 11.3 0.00 0.00 0.00 54 1005.6
20260508230912 10 59 3.2 12.9 0.00 0.00 0.00 53 1005.7
20260508225911 10 65 1.6 4.8 0.00 0.00 0.00 54 1005.8
20260508225412 10 95 4.8 8.0 0.00 0.00 0.00 55 1005.8
20260508224913 10 85 4.8 9.7 0.00 0.00 0.00 56 1005.8
20260508224413 10 74 3.2 8.0 0.00 0.00 0.00 54 1005.9
20260508223913 10 60 4.8 8.0 0.00 0.00 0.00 57 1005.9
20260508223412 10 77 1.6 8.0 0.00 0.00 0.00 56 1005.9
20260508222911 10 81 4.8 11.3 0.00 0.00 0.00 57 1006.1
20260508222413 9 77 4.8 11.3 0.00 0.00 0.00 55 1006.1
20260508221911 10 59 4.8 11.3 0.00 0.00 0.00 57 1006.1
20260508220412 10 38 4.8 8.0 0.00 0.00 0.00 54 1006.2
20260508215912 10 38 4.8 8.0 0.00 0.00 0.00 52 1006.2
20260508215413 10 36 6.4 11.3 0.00 0.00 0.00 53 1006.2
20260508214413 10 60 6.4 12.9 0.00 0.00 0.00 55 1006.3
20260508213912 10 66 4.8 11.3 0.00 0.00 0.00 54 1006.3
20260508213413 10 45 4.8 8.0 0.00 0.00 0.00 53 1006.3
20260508212911 10 33 4.8 9.7 0.00 0.00 0.00 55 1006.4
20260508212412 10 80 3.2 9.7 0.00 0.00 0.00 58 1006.3
20260508211413 10 37 4.8 16.1 0.00 0.00 0.00 54 1006.4
20260508210911 10 81 4.8 11.3 0.00 0.00 0.00 55 1006.5
20260508210413 10 54 6.4 11.3 0.00 0.00 0.00 55 1006.5
20260508205913 10 61 6.4 9.7 0.00 0.00 0.00 54 1006.6
20260508205413 9 45 6.4 11.3 0.00 0.00 0.00 56 1006.6
20260508204915 10 66 8.0 11.3 0.00 0.00 0.00 56 1006.6
20260508204410 10 65 6.4 12.9 0.00 0.00 0.00 58 1006.7
20260508203911 10 49 8.0 11.3 0.00 0.00 0.00 56 1006.6
20260508203412 10 67 8.0 12.9 0.00 0.00 0.00 57 1006.7
20260508202914 10 50 4.8 11.3 0.00 0.00 0.00 56 1006.7
20260508202413 10 51 8.0 12.9 0.00 0.00 0.00 56 1006.8
20260508201910 10 87 4.8 16.1 0.00 0.00 0.00 55 1006.8
20260508201411 10 65 6.4 14.5 0.00 0.00 0.00 58 1006.8
20260508200913 9 50 4.8 11.3 0.00 0.00 0.00 59 1007.0
20260508200411 9 54 6.4 11.3 0.00 0.00 0.00 58 1007.1
20260508195911 9 83 8.0 12.9 0.00 0.00 0.00 61 1007.0
20260508195413 9 71 8.0 16.1 0.00 0.00 0.00 64 1007.1
20260508194412 9 66 9.7 16.1 0.00 0.00 0.00 61 1007.1
20260508193913 9 61 8.0 14.5 0.00 0.00 0.00 63 1007.2
20260508193412 9 55 8.0 12.9 0.00 0.00 0.00 63 1007.3
20260508192913 8 108 6.4 16.1 0.00 0.00 0.00 64 1007.3
20260508192411 8 87 9.7 16.1 0.00 0.00 0.00 66 1007.4
20260508191411 8 62 8.0 12.9 0.00 0.00 0.00 67 1007.4
20260508190911 8 66 9.7 19.3 0.00 0.00 0.00 67 1007.5
20260508190413 8 85 8.0 19.3 0.00 0.00 0.00 68 1007.5
20260508185430 8 61 9.7 19.3 0.00 0.00 0.00 69 1007.5
20260508184912 8 74 4.8 14.5 0.00 0.00 0.00 69 1007.6
20260508183911 8 91 6.4 14.5 0.00 0.00 0.00 69 1007.7
20260508183414 8 61 8.0 12.9 0.00 0.00 0.00 67 1007.6
20260508182912 8 52 9.7 16.1 0.00 0.00 0.00 67 1007.6
20260508182413 8 73 8.0 14.5 0.00 0.00 0.00 68 1007.7
20260508181914 8 61 6.4 19.3 0.00 0.00 0.00 67 1007.7
20260508181411 8 48 8.0 16.1 0.00 0.00 0.00 68 1007.9
20260508180913 8 66 6.4 14.5 0.00 0.00 0.00 67 1007.9
20260508180413 8 70 4.8 12.9 0.00 0.00 0.00 69 1007.9
20260508175913 7 50 9.7 19.3 0.00 0.00 0.00 69 1007.9
20260508175412 8 54 8.0 12.9 0.00 0.00 0.00 67 1008.0
20260508174913 8 59 8.0 14.5 0.00 0.00 0.00 68 1008.1
20260508174412 7 81 4.8 11.3 0.00 0.00 0.00 69 1008.2
20260508173913 8 58 9.7 14.5 0.00 0.00 0.00 68 1008.2
20260508173413 8 54 8.0 14.5 0.00 0.00 0.00 71 1008.2
20260508172912 8 46 8.0 12.9 0.00 0.00 0.00 70 1008.4
20260508172412 7 53 6.4 11.3 0.00 0.00 0.00 72 1008.4
20260508171412 7 54 9.7 14.5 0.00 0.00 0.00 72 1008.5
20260508170910 7 38 8.0 14.5 0.00 0.00 0.00 72 1008.5
20260508170412 7 52 9.7 19.3 0.00 0.00 0.00 73 1008.5
20260508165411 7 48 8.0 14.5 0.00 0.00 0.00 73 1008.7
20260508164912 7 70 4.8 12.9 0.00 0.00 0.00 73 1008.8
20260508164412 7 54 8.0 16.1 0.00 0.00 0.00 74 1008.8
20260508163912 7 75 6.4 14.5 0.00 0.00 0.00 73 1008.9
20260508163413 7 56 9.7 14.5 0.00 0.00 0.00 71 1008.9
20260508162911 7 56 4.8 16.1 0.00 0.00 0.00 74 1008.9
20260508162412 7 73 6.4 14.5 0.00 0.00 0.00 75 1009.0
20260508161910 7 96 8.0 14.5 0.00 0.00 0.00 75 1009.0
20260508161414 7 61 3.2 11.3 0.00 0.00 0.00 77 1009.0
20260508160912 7 58 8.0 14.5 0.00 0.00 0.00 76 1009.0
20260508160412 7 65 8.0 12.9 0.00 0.00 0.00 76 1009.0
20260508155912 7 85 6.4 9.7 0.00 0.00 0.00 77 1009.0
20260508155411 7 51 4.8 9.7 0.00 0.00 0.00 76 1009.0
20260508154911 7 67 4.8 11.3 0.00 0.00 0.00 75 1009.0
20260508154411 7 54 4.8 11.3 0.00 0.00 0.00 74 1009.0
20260508153910 7 40 8.0 11.3 0.00 0.00 0.00 75 1009.1
20260508153413 7 23 4.8 8.0 0.00 0.00 0.00 75 1009.0
20260508152912 7 40 4.8 8.0 0.00 0.00 0.00 75 1009.2
20260508151412 7 52 3.2 4.8 0.00 0.00 0.00 75 1009.2
20260508150913 7 48 4.8 4.8 0.00 0.00 0.00 75 1009.2
20260508150413 7 72 4.8 8.0 0.00 0.00 0.00 74 1009.2
20260508145911 7 27 3.2 8.0 0.00 0.00 0.00 75 1009.3
20260508145410 7 47 3.2 4.8 0.00 0.00 0.00 75 1009.3
20260508144911 7 63 4.8 8.0 0.00 0.00 0.00 77 1009.3
20260508144411 7 5 3.2 4.8 0.00 0.00 0.00 77 1009.3
20260508143415 7 47 3.2 4.8 0.00 0.00 0.00 78 1009.3
20260508142911 7 7 3.2 4.8 0.00 0.00 0.00 78 1009.4
20260508142412 7 37 3.2 4.8 0.00 0.00 0.00 78 1009.4
20260508141912 7 357 4.8 8.0 0.00 0.00 0.00 77 1009.4
20260508141412 7 11 3.2 4.8 0.00 0.00 0.00 80 1009.5
20260508140911 7 8 3.2 4.8 0.00 0.00 0.00 79 1009.5
20260508140411 7 353 4.8 8.0 0.00 0.00 0.00 76 1009.5
20260508135912 7 0 4.8 9.7 0.00 0.00 0.00 75 1009.5
20260508135412 7 17 3.2 4.8 0.00 0.00 0.00 78 1009.5
20260508134911 6 12 4.8 11.3 0.00 0.00 0.00 78 1009.5
20260508133911 6 338 3.2 8.0 0.00 0.00 0.00 78 1009.7
20260508133411 6 308 1.6 8.0 0.00 0.00 0.00 78 1009.7
20260508132912 6 5 3.2 8.0 0.00 0.00 0.00 77 1009.7
20260508132412 6 1 3.2 4.8 0.00 0.00 0.00 76 1009.8
20260508131912 6 329 3.2 8.0 0.00 0.00 0.00 74 1009.8
20260508130412 6 324 3.2 9.7 0.00 0.00 0.00 75 1009.8
20260508125911 6 262 1.6 4.8 0.00 0.00 0.00 75 1009.8
20260508125412 6 356 3.2 4.8 0.00 0.00 0.00 75 1009.9